Location: Unspecified
(0.0000°N, 0.0000°E)
Time: 16:25:18
(UTC+00:00)

Courier 1B Rocket - Pass Details

Date: 21 November 2019
Orbit: 920 x 1202 km, 28.2° (Epoch: 12 December)

Event Time Altitude Azimuth Distance (km) Brightness Sun altitude
Rises 12:20:22 0° 275° (W) 3,589 8.1 68.4°
Reaches altitude 10° 12:23:47 10° 293° (WNW) 2,677 7.5 68.0°
Maximum altitude 12:28:10 19° 336° (NNW) 2,156 6.9 67.5°
Drops below altitude 10° 12:32:44 10° 19° (NNE) 2,795 7.3 67.0°
Sets 12:36:25 0° 36° (NE) 3,805 7.9 66.5°
